Home   Weather   Ancona   Past weeks

Flag for Italy Past Weather in Ancona, Italy — Yesterday and Last 2 Weeks

Now
45 °F

Clear.


Feels Like: 43 °F
Forecast: 51 / 54 °F
Wind: 3 mph from South

Location: Falconara

Current Time: Dec 6, 2016 at 2:08:19 am

Latest Report: Dec 6, 2016 at 12:50 am


Visibility: 4 mi

Pressure: 30.36 "Hg

Humidity: 93%

Dew Point: 43 °F

Location of AnconaLocation

Past Weather in Ancona — Graph

°F

Ancona Temperature Yesterday

Maximum temperature yesterday: 52 °F (at 10:50 am)
Minimum temperature yesterday: 45 °F (at 4:50 am)
Average temperature yesterday: 48 °F

High & Low Weather Summary for the Past Weeks

 TemperatureHumidityPressure
High66 °F (Nov 23, 1:50 pm)100% (Nov 21, 12:50 am)30.54 "Hg (Nov 21, 12:50 am)
Low32 °F (Nov 30, 10:50 pm)35% (Dec 1, 3:50 pm)29.83 "Hg (Nov 28, 2:50 am)
Average50 °F85%30.13 "Hg
* Reported Nov 21 12:50 am — Dec 6 12:50 am, Ancona, Weather by CustomWeather, © 2016

Note: Actual official high and low records may vary slightly from our data, if they occured in-between our weather recording intervals... More about our weather records

Advertising

Ancona Weather History for the Previous 24 Hours

Scroll right to see more
 ConditionsComfort  
Time TempWeatherWind HumidityBarometerVisibility
12:50 am
Tue, Dec 6
45 °FClear.3 mph93%30.36 "Hg4 mi
11:50 pm
Mon, Dec 5
45 °FClear.1 mph93%30.36 "Hg4 mi
10:50 pm46 °FClear.3 mph87%30.36 "Hg4 mi
9:50 pm46 °FClear.3 mph87%30.36 "Hg4 mi
8:50 pm46 °FPassing clouds.1 mph93%30.36 "Hg4 mi
7:50 pm46 °FPassing clouds.1 mph87%30.36 "Hg4 mi
6:50 pm48 °FPassing clouds.3 mph82%30.36 "Hg4 mi
5:50 pm48 °FPassing clouds.2 mph82%30.36 "Hg4 mi
4:50 pm50 °FPassing clouds.1 mph76%30.36 "Hg4 mi
3:50 pm50 °FPartly sunny.7 mph76%30.36 "HgN/A
2:50 pm52 °FScattered clouds.7 mph77%30.36 "HgN/A
1:50 pm52 °FScattered clouds.6 mph77%30.36 "HgN/A
12:50 pm50 °FPartly sunny.6 mph76%30.36 "HgN/A
11:50 am52 °FPartly sunny.6 mph77%30.39 "Hg5 mi
10:50 am52 °FScattered clouds.3 mph77%30.39 "Hg5 mi
9:50 am50 °FScattered clouds.2 mph82%30.39 "Hg5 mi
8:50 am48 °FPartly sunny.No wind87%30.36 "Hg5 mi
7:50 am48 °FPartly sunny.No wind87%30.36 "Hg4 mi
6:50 am46 °FPassing clouds.1 mph93%30.36 "Hg4 mi
5:50 am46 °FPassing clouds.2 mph93%30.36 "Hg4 mi
4:50 am45 °FPassing clouds.2 mph93%30.33 "Hg4 mi
3:50 am46 °FPassing clouds.2 mph93%30.33 "Hg4 mi
2:50 am48 °FPassing clouds.1 mph87%30.36 "Hg4 mi
Weather by CustomWeather, © 2016

See weather overviewHow to use our weather pages